Вернуться в каталог

CZ-2F R/B

АктивенVLEO
NORAD 67690·ROCKET BODY·🇨🇳 China

Запущен Feb 7, 2026 с Jiuquan Satellite Launch Center

Loading…

Ближайшие Пролёты (ближайшие 24 часа)

TLE

СвежийSource: Space-Track

Эпоха: Sep 14, 2026, 22:57 UTC

1 67690U 26024B   26257.95681228  .00022906  00000-0  36009-3 0  9995
2 67690  49.9836 140.7001 0154375 345.5985  14.0602 15.41028549 33813

Отслеживайте CZ-2F R/B в реальном времени с AllMySat

Download on the App Store